Regional Weather Roundup
Issued by NWS

Home | Current Version | Previous Version | Graphics & Text | Print | Product List | Glossary On
Versions: 1 2 3 4 5 6 7 8 9 10 11 12 13 14 15 16 17 18 19 20 21 22 23 24 25 26 27 28 29 30 31 32 33 34 35 36 37 38 39 40 41 42 43 44 45 46 47 48 49 50
000
ASUS43 KOAX 201910
RWRNE

WEATHER ROUNDUP FOR NEBRASKA
NATIONAL WEATHER SERVICE OMAHA NE
100 PM CST SAT DEC 20 2014

NOTES: SATELLITE DATA IS BEING USED TO AUGMENT CLOUD COVER ABOVE
       12000 FEET.
       "FAIR" INDICATES FEW OR NO CLOUDS BELOW 12,000 FEET WITH NO
       SIGNIFICANT WEATHER AND/OR OBSTRUCTIONS TO VISIBILITY.

  * THESE STATIONS DO NOT REPORT WEATHER SUCH AS RAIN...SNOW OR FOG.

NEZ001>004-019>022-054>056-202000-
NEBRASKA PANHANDLE

CITY           SKY/WX    TMP DP  RH WIND       PRES   REMARKS
SCOTTSBLUFF    PTSUNNY   41  29  62 W8        29.96F
ALLIANCE       CLOUDY    39  28  64 W14       29.94F WCI  31
CHADRON        MOSUNNY   43  28  55 SW8       29.94F
KIMBALL        PTSUNNY   46  26  46 W18G30    29.95F
SIDNEY         PTSUNNY   43  28  55 W12       29.97F
$$

NEZ057>060-069>072-079>082-202000-
SOUTHWEST NEBRASKA

CITY           SKY/WX    TMP DP  RH WIND       PRES   REMARKS
NORTH PLATTE   PTSUNNY   36  26  67 W9        29.97F WCI  29
IMPERIAL       CLOUDY    41  27  57 W8        29.97F
LEXINGTON      PTSUNNY   38  32  79 N3        29.98F
MCCOOK         PTSUNNY   40  26  57 W7        29.99F
OGALLALA       PTSUNNY   31  27  83 W9        29.97F WCI  23
$$

NEZ005>010-023>029-035>040-094-202000-
NORTH CENTRAL NEBRASKA

CITY           SKY/WX    TMP DP  RH WIND       PRES   REMARKS
VALENTINE      PTSUNNY   36  27  69 W9        29.92F WCI  29
AINSWORTH      PTSUNNY   34  27  75 SW6       29.92F WCI  29
BROKEN BOW     PTSUNNY   40  32  73 SW6       29.95F
O`NEILL        SUNNY    N/A N/A N/A CALM      29.97F
THEDFORD       CLOUDY    40  29  66 SW6       29.93F
$$

NEZ041-046>049-061>064-073>077-083>087-202000-
SOUTH CENTRAL NEBRASKA

CITY           SKY/WX    TMP DP  RH WIND       PRES   REMARKS
GRAND ISLAND   CLOUDY    31  31 100 S7        30.02F FOG     WCI  24
AURORA         FOG       32  32 100 S7        30.01F VSB 3/4 WCI  26
HASTINGS       SUNNY     35  31  85 S8        30.00F WCI  29
HEBRON         CLOUDY    31  30  96 S3        30.05F FOG
HOLDREGE       MOSUNNY   38  29  69 SW7       29.99F WCI  33
KEARNEY *      MOSUNNY   34  28  80 S6        29.99F WCI  29
YORK           LGT RAIN  32  32 100 CALM      30.03F VSB 1/4
$$

NEZ011>018-030>034-042>045-202000-
NORTHEAST NEBRASKA

CITY           SKY/WX    TMP DP  RH WIND       PRES   REMARKS
NORFOLK        CLOUDY    33  31  92 S8        30.01F FOG     WCI  26
ALBION         FOG       31  29  94 SE6       30.00F VSB 1/4 WCI  25
BLAIR          CLOUDY    33  32  96 SE5       30.06F FOG     WCI  29
COLUMBUS *     CLOUDY    32  28  86 CALM      30.05F
FREMONT        CLOUDY    33  33  97 SE3       30.06F FOG
TEKAMAH        CLOUDY    33  31  92 S8        30.07F WCI  26
WAYNE          CLOUDY    33  31  91 S7        30.04F WCI  27
$$

NEZ050>053-065>068-078-088>093-202000-
SOUTHEAST NEBRASKA

CITY           SKY/WX    TMP DP  RH WIND       PRES   REMARKS
LINCOLN        CLOUDY    33  31  92 CALM      30.08F FOG
OMAHA EPPLEY   CLOUDY    34  32  92 S10       30.09F FOG     WCI  26
BEATRICE       CLOUDY    34  32  93 CALM      30.06F FOG
FALLS CITY     CLOUDY    34  31  88 SW8       30.10F WCI  27
NEBRASKA CITY  CLOUDY    34  34 100 CALM      30.08F FOG
PLATTSMOUTH    CLOUDY    33  32  96 S7        30.08F FOG     WCI  26
$$

NEZ044-045-051>053-067-202000-
OMAHA AREA

CITY           SKY/WX    TMP DP  RH WIND       PRES   REMARKS
OMAHA EPPLEY   CLOUDY    34  32  92 S10       30.09F FOG     WCI  26
BLAIR          CLOUDY    33  32  96 SE5       30.06F FOG     WCI  29
FREMONT        CLOUDY    33  33  97 SE3       30.06F FOG
MILLARD        CLOUDY    33  32  94 CALM      30.08F FOG
OFFUTT AFB     CLOUDY    32  32 100 S6        30.08F WCI  26
PLATTSMOUTH    CLOUDY    33  32  96 S7        30.08F FOG     WCI  26
WAHOO          CLOUDY    33  31  94 SE3       30.06F FOG
$$



USA.gov is the U.S. government's official web portal to all federal, state and local government web resources and services.